• în Republica Moldova
  • Lista ţărilor
  • Pe 7 zile
  • Temperatura apei
  • Hartă satelitară
  • Meteo pe hartă
  • Widget-uri
  • user-avatar
    Intrare

    Meteo pe oră la Salzburg

    Astăzi, 19 Februarie, Duminică

    Timp Temperatura Precipitaţii Vânt Presiune Umiditate
    00:00 -13°C° 0 mm 1 m/s 624 mmHg 92%
    01:00 -14°C° 0 mm 1 m/s 623 mmHg 90%
    02:00 -14°C° 0 mm 1 m/s 623 mmHg 87%
    03:00 -14°C° 0 mm 1 m/s 623 mmHg 84%
    04:00 -14°C° 0 mm 1 m/s 623 mmHg 81%
    05:00 -14°C° 0 mm 1 m/s 623 mmHg 80%
    06:00 -14°C° 0 mm 1 m/s 623 mmHg 79%
    07:00 -14°C° 0 mm 1 m/s 623 mmHg 74%
    08:00 -10°C° 0 mm 1 m/s 625 mmHg 77%
    09:00 -7°C° 0 mm 1 m/s 626 mmHg 81%
    10:00 -3°C° 0 mm 1 m/s 627 mmHg 84%
    11:00 -2°C° 0 mm 1 m/s 627 mmHg 85%
    12:00 -1°C° 0 mm 1 m/s 627 mmHg 85%
    13:00 -1°C° 0 mm 1 m/s 627 mmHg 82%
    14:00 -1°C° 0 mm 1 m/s 627 mmHg 85%
    15:00 -1°C° 0 mm 1 m/s 627 mmHg 87%
    16:00 -1°C° 0 mm 1 m/s 626 mmHg 90%
    17:00 -4°C° 0 mm 1 m/s 625 mmHg 87%
    18:00 -7°C° 0 mm 1 m/s 624 mmHg 83%
    19:00 -12°C° 0 mm 2 m/s 623 mmHg 80%
    20:00 -10°C° 0 mm 2 m/s 623 mmHg 80%
    21:00 -9°C° 0 mm 2 m/s 624 mmHg 80%
    22:00 -9°C° 0 mm 2 m/s 625 mmHg 80%
    23:00 -8°C° 0 mm 2 m/s 625 mmHg 83%

    Mâine, 20 Februarie, Luni

    Timp Temperatura Precipitaţii Vânt Presiune Umiditate
    00:00 -8°C° 0 mm 2 m/s 625 mmHg 86%
    01:00 -8°C° 0 mm 2 m/s 626 mmHg 89%
    02:00 -7°C° 0,1 mm 2 m/s 626 mmHg 90%
    03:00 -7°C° 0,1 mm 2 m/s 626 mmHg 91%
    04:00 -7°C° 0,1 mm 2 m/s 626 mmHg 91%
    05:00 -7°C° 0,1 mm 2 m/s 626 mmHg 92%
    06:00 -7°C° 0,1 mm 2 m/s 626 mmHg 92%
    07:00 -7°C° 0,1 mm 2 m/s 626 mmHg 92%
    08:00 -6°C° 0,1 mm 2 m/s 626 mmHg 92%
    09:00 -5°C° 0,1 mm 2 m/s 627 mmHg 92%
    10:00 -2°C° 0,1 mm 1 m/s 627 mmHg 92%
    11:00 -1°C° 0 mm 1 m/s 627 mmHg 92%
    12:00 0°C° 0 mm 1 m/s 627 mmHg 91%
    13:00 0°C° 0 mm 1 m/s 627 mmHg 91%
    14:00 0°C° 0 mm 1 m/s 627 mmHg 91%
    15:00 0°C° 0 mm 1 m/s 626 mmHg 92%
    16:00 0°C° 0 mm 1 m/s 626 mmHg 93%
    17:00 -3°C° 0 mm 1 m/s 625 mmHg 93%
    18:00 -7°C° 0 mm 1 m/s 623 mmHg 93%
    19:00 -10°C° 0 mm 1 m/s 622 mmHg 94%
    20:00 -10°C° 0 mm 2 m/s 623 mmHg 91%
    21:00 -9°C° 0 mm 2 m/s 623 mmHg 89%
    22:00 -8°C° 0 mm 2 m/s 623 mmHg 87%
    23:00 -7°C° 0,1 mm 2 m/s 624 mmHg 85%

    Poimâine, 21 Februarie, Marţi

    Timp Temperatura Precipitaţii Vânt Presiune Umiditate
    00:00 -7°C° 0,1 mm 2 m/s 624 mmHg 84%
    01:00 -6°C° 0,1 mm 2 m/s 624 mmHg 83%
    02:00 -6°C° 0,4 mm 2 m/s 624 mmHg 85%
    03:00 -5°C° 0,4 mm 2 m/s 624 mmHg 88%
    04:00 -4°C° 0,4 mm 2 m/s 624 mmHg 91%
    05:00 -3°C° 0,6 mm 2 m/s 624 mmHg 92%
    06:00 -3°C° 0,6 mm 2 m/s 624 mmHg 94%
    07:00 -2°C° 0,6 mm 2 m/s 624 mmHg 96%
    08:00 -2°C° 0,6 mm 2 m/s 624 mmHg 96%
    09:00 -1°C° 0,6 mm 2 m/s 624 mmHg 96%
    10:00 -1°C° 0,6 mm 3 m/s 624 mmHg 96%
    11:00 -1°C° 0,8 mm 2 m/s 624 mmHg 97%
    12:00 +1°C° 0,8 mm 2 m/s 624 mmHg 97%
    13:00 +1°C° 0,8 mm 2 m/s 624 mmHg 97%
    14:00 +1°C° 0,9 mm 2 m/s 624 mmHg 97%
    15:00 +1°C° 0,9 mm 2 m/s 624 mmHg 97%
    16:00 -1°C° 0,9 mm 2 m/s 624 mmHg 97%
    17:00 -1°C° 1,2 mm 2 m/s 624 mmHg 97%
    18:00 -1°C° 1,2 mm 2 m/s 624 mmHg 97%
    19:00 -1°C° 1,2 mm 2 m/s 624 mmHg 97%
    20:00 -1°C° 1 mm 2 m/s 624 mmHg 97%
    21:00 -1°C° 1 mm 2 m/s 624 mmHg 96%
    22:00 -1°C° 1 mm 2 m/s 625 mmHg 96%
    23:00 -1°C° 0,4 mm 2 m/s 624 mmHg 96%

    22 Februarie, Miercuri

    Timp Temperatura Precipitaţii Vânt Presiune Umiditate
    00:00 -2°C° 0,4 mm 2 m/s 624 mmHg 96%
    01:00 -2°C° 0,4 mm 2 m/s 624 mmHg 95%
    02:00 -2°C° 0,4 mm 2 m/s 624 mmHg 95%
    03:00 -2°C° 0,4 mm 2 m/s 623 mmHg 95%
    04:00 -3°C° 0,4 mm 2 m/s 623 mmHg 95%
    05:00 -4°C° 0,1 mm 2 m/s 622 mmHg 95%
    06:00 -3°C° 0,1 mm 1 m/s 622 mmHg 94%
    07:00 -3°C° 0,1 mm 1 m/s 621 mmHg 94%
    08:00 -2°C° 0 mm 1 m/s 622 mmHg 94%
    09:00 0°C° 0 mm 1 m/s 623 mmHg 94%
    10:00 +2°C° 0 mm 1 m/s 623 mmHg 94%
    11:00 +3°C° 0 mm 1 m/s 623 mmHg 92%
    12:00 +2°C° 0 mm 2 m/s 623 mmHg 91%
    13:00 +2°C° 0 mm 2 m/s 622 mmHg 90%
    14:00 +2°C° 0 mm 2 m/s 622 mmHg 91%
    15:00 +2°C° 0 mm 2 m/s 622 mmHg 92%
    16:00 +2°C° 0 mm 2 m/s 622 mmHg 94%
    17:00 +1°C° 0 mm 2 m/s 621 mmHg 94%
    18:00 -1°C° 0 mm 2 m/s 621 mmHg 94%
    19:00 -3°C° 0 mm 2 m/s 621 mmHg 95%
    20:00 -3°C° 0 mm 2 m/s 621 mmHg 94%
    21:00 -3°C° 0 mm 2 m/s 621 mmHg 94%
    22:00 -4°C° 0 mm 2 m/s 621 mmHg 94%
    23:00 -4°C° 0 mm 2 m/s 621 mmHg 93%

    23 Februarie, Joi

    Timp Temperatura Precipitaţii Vânt Presiune Umiditate
    00:00 -4°C° 0 mm 2 m/s 621 mmHg 92%
    01:00 -4°C° 0 mm 2 m/s 621 mmHg 91%
    02:00 -4°C° 0 mm 2 m/s 621 mmHg 90%
    03:00 -3°C° 0 mm 2 m/s 621 mmHg 88%
    04:00 -3°C° 0 mm 2 m/s 621 mmHg 87%
    05:00 -3°C° 0,1 mm 2 m/s 621 mmHg 86%
    06:00 -3°C° 0,1 mm 2 m/s 621 mmHg 86%
    07:00 -3°C° 0,1 mm 2 m/s 621 mmHg 85%
    08:00 -2°C° 0,1 mm 2 m/s 621 mmHg 85%
    09:00 -1°C° 0,1 mm 2 m/s 621 mmHg 85%
    10:00 +1°C° 0,1 mm 2 m/s 622 mmHg 85%
    11:00 +2°C° 0 mm 2 m/s 621 mmHg 84%
    12:00 +3°C° 0 mm 2 m/s 621 mmHg 83%
    13:00 +3°C° 0 mm 2 m/s 620 mmHg 82%
    14:00 +3°C° 0 mm 2 m/s 620 mmHg 84%
    15:00 +3°C° 0 mm 2 m/s 619 mmHg 86%
    16:00 +2°C° 0 mm 2 m/s 618 mmHg 88%
    17:00 +1°C° 0 mm 2 m/s 618 mmHg 90%
    18:00 -1°C° 0 mm 2 m/s 617 mmHg 91%
    19:00 -2°C° 0 mm 2 m/s 617 mmHg 93%
    20:00 -3°C° 0 mm 2 m/s 617 mmHg 92%
    21:00 -3°C° 0 mm 2 m/s 616 mmHg 92%
    22:00 -3°C° 0 mm 2 m/s 616 mmHg 92%
    23:00 -3°C° 0 mm 2 m/s 616 mmHg 92%

    24 Februarie, Vineri

    Timp Temperatura Precipitaţii Vânt Presiune Umiditate
    00:00 -3°C° 0 mm 2 m/s 615 mmHg 92%
    01:00 -3°C° 0 mm 2 m/s 615 mmHg 92%
    02:00 -3°C° 0,1 mm 2 m/s 615 mmHg 92%
    03:00 -3°C° 0,1 mm 2 m/s 614 mmHg 92%
    04:00 -3°C° 0,1 mm 2 m/s 614 mmHg 92%
    05:00 -4°C° 0,9 mm 2 m/s 614 mmHg 94%
    06:00 -5°C° 0,9 mm 3 m/s 614 mmHg 95%
    07:00 -5°C° 0,9 mm 3 m/s 614 mmHg 96%
    08:00 -5°C° 1,3 mm 3 m/s 615 mmHg 96%
    09:00 -6°C° 1,3 mm 3 m/s 615 mmHg 96%
    10:00 -6°C° 1,3 mm 3 m/s 615 mmHg 96%
    11:00 -6°C° 1 mm 3 m/s 615 mmHg 96%
    12:00 -6°C° 1 mm 3 m/s 615 mmHg 96%
    13:00 -6°C° 1 mm 3 m/s 615 mmHg 95%
    14:00 -7°C° 1 mm 3 m/s 616 mmHg 96%
    15:00 -7°C° 1 mm 3 m/s 616 mmHg 96%
    16:00 -7°C° 1 mm 3 m/s 616 mmHg 96%
    17:00 -8°C° 0,7 mm 3 m/s 617 mmHg 96%
    18:00 -8°C° 0,7 mm 3 m/s 618 mmHg 97%
    19:00 -8°C° 0,7 mm 3 m/s 618 mmHg 97%
    20:00 -9°C° 0,6 mm 3 m/s 619 mmHg 97%
    21:00 -9°C° 0,6 mm 3 m/s 620 mmHg 97%
    22:00 -9°C° 0,6 mm 3 m/s 620 mmHg 97%
    23:00 -10°C° 0,3 mm 3 m/s 621 mmHg 97%
    Arată mai mult